Location: Bacea
(45.9500°N, 22.6667°E)
Time: 02:03:56
(UTC+00:00)

Meteor 1-21 Rocket - Pass Details

Date: 16 October 2021
Orbit: 834 x 906 km, 81.2° (Epoch: 02 December)

Event Time Altitude Azimuth Distance (km) Brightness Sun altitude
Rises 16:32:57 0° 352° (N) 3,488 7.5 -9.7°
Reaches altitude 10° 16:35:27 10° 356° (N) 2,556 6.7 -10.1°
Maximum altitude 16:41:12 57° 75° (ENE) 1,048 4.4 -11.1°
Drops below altitude 10° 16:46:58 10° 154° (SSE) 2,575 6.5 -12.1°
Sets 16:49:29 0° 158° (SSE) 3,516 7.2 -12.6°
